Change the Weather History Date:

Wednesday, May 1, 2013

  Actual Average Record
Temperature  
Mean Temperature 35 °F 54 °F  
Max Temperature 40 °F 68 °F 96 °F (1934)
Min Temperature 29 °F 41 °F 15 °F (1909)
Degree Days  
Heating Degree Days 30 11  
Month to date heating degree days 30 11  
Cooling Degree Days 0 0  
Month to date cooling degree days 0 0  
Year to date cooling degree days 2 1  
Moisture  
Dew Point 30 °F    
Average Humidity 91    
Maximum Humidity 96    
Minimum Humidity 85    
Precipitation  
Precipitation 0.25 in 0.10 in 1.41 in (1948)
Sea Level Pressure  
Sea Level Pressure 30.35 in    
Wind  
Wind Speed 17 mph (NNE)    
Max Wind Speed 28 mph    
Max Gust Speed 36 mph    
Visibility 4 miles    
Events Fog , Rain , Snow , Thunderstorm    
T = Trace of Precipitation, MM = Missing Value Source: NWS Daily Summary

Daily Weather History Graph

Daily Weather History Graph

Search for Another Location

Airport or City:

Trip Planner

Search our weather history database for the weather conditions in past years. The results will help you decide how hot, cold, wet, or windy it might be!

Date:

Astronomy

May. 01, 2013 Rise Set
Actual Time 5:45 AM MDT 7:42 PM MDT
Civil Twilight 5:15 AM MDT 8:12 PM MDT
Nautical Twilight 4:39 AM MDT 8:48 PM MDT
Astronomical Twilight 4:00 AM MDT 9:27 PM MDT
Moon 12:53 AM MDT (5/1) 11:25 AM MDT (5/1)
Length of Visible Light 14h 56m
Length of Day
13h 57m
Waning Gibbous, 58% of the Moon is Illuminated
May 1
Waning Gibbous
May 2
Last Quarter
May 9
New
May 17
First Quarter
May 24
Full

Hourly Weather History & Observations

Time (MDT) Temp. Windchill Dew Point Humidity Pressure Visibility Wind Dir Wind Speed Gust Speed Precip Events Conditions
12:49 AM 41.0 °F 31.1 °F 35.6 °F 81% 30.01 in 10.0 mi NNE 23.0 mph 31.1 mph 0.00 in Rain Light Rain
12:53 AM 41.0 °F 31.4 °F 36.0 °F 82% 30.00 in 10.0 mi NNE 21.9 mph 31.1 mph 0.00 in Rain Light Rain
1:01 AM 39.2 °F 29.3 °F 35.6 °F 87% 30.02 in 10.0 mi NNE 20.7 mph 27.6 mph 0.01 in Rain Light Rain
1:08 AM 39.2 °F 30.2 °F 35.6 °F 87% 30.03 in 10.0 mi NE 17.3 mph 26.5 mph 0.01 in Rain , Thunderstorm Light Rain
1:39 AM 39.2 °F 28.7 °F 35.6 °F 87% 30.06 in 10.0 mi NNE 23.0 mph 28.8 mph 0.05 in Rain Light Rain
1:53 AM 37.9 °F 27.6 °F 35.1 °F 89% 30.04 in 10.0 mi NNE 20.7 mph - 0.05 in   Overcast
2:22 AM 37.4 °F 26.9 °F 35.6 °F 93% 30.05 in 10.0 mi NE 20.7 mph 28.8 mph 0.00 in Rain Light Rain
2:31 AM 37.4 °F 27.2 °F 35.6 °F 93% 30.07 in 10.0 mi NNE 19.6 mph 26.5 mph 0.00 in Rain Light Rain
2:39 AM 37.4 °F 27.5 °F 35.6 °F 93% 30.08 in 10.0 mi NNE 18.4 mph - 0.00 in   Overcast
2:53 AM 37.0 °F 26.7 °F 35.1 °F 93% 30.07 in 10.0 mi NE 19.6 mph 26.5 mph 0.00 in   Overcast
3:53 AM 35.6 °F 25.5 °F 33.8 °F 93% 30.12 in 7.0 mi NNE 17.3 mph 26.5 mph N/A   Overcast
4:53 AM 35.6 °F 25.2 °F 33.8 °F 93% 30.13 in 5.0 mi NNE 18.4 mph 25.3 mph N/A   Overcast
5:53 AM 35.1 °F 23.3 °F 33.1 °F 92% 30.19 in 10.0 mi NNE 23.0 mph 32.2 mph 0.01 in   Overcast
6:09 AM 35.6 °F 24.0 °F 32.0 °F 87% 30.19 in 10.0 mi NNE 23.0 mph 31.1 mph N/A   Overcast
6:37 AM 35.6 °F 23.4 °F 32.0 °F 87% 30.21 in 5.0 mi NE 25.3 mph 33.4 mph 0.00 in   Overcast
6:53 AM 33.8 °F 22.2 °F 32.0 °F 93% 30.21 in 5.0 mi NE 20.7 mph 28.8 mph N/A   Overcast
7:53 AM 34.0 °F 22.1 °F 32.0 °F 92% 30.29 in 4.0 mi NNE 21.9 mph 26.5 mph 0.00 in   Overcast
8:17 AM 33.8 °F 22.2 °F 32.0 °F 93% 30.28 in 2.0 mi North 20.7 mph 25.3 mph 0.01 in Snow Light Snow
8:24 AM 33.8 °F 23.2 °F 32.0 °F 93% 30.28 in 2.5 mi NNE 17.3 mph - 0.01 in Snow Light Snow
8:36 AM 33.8 °F 23.5 °F 32.0 °F 93% 30.28 in 3.0 mi NNE 16.1 mph 26.5 mph 0.01 in   Overcast
8:53 AM 33.8 °F 22.5 °F 30.2 °F 87% 30.28 in 3.0 mi North 19.6 mph - N/A   Overcast
9:00 AM 33.8 °F 21.9 °F 30.2 °F 87% 30.29 in 4.0 mi North 21.9 mph - 0.00 in   Overcast
9:27 AM 33.8 °F 21.6 °F 30.2 °F 87% 30.29 in 2.5 mi NNE 23.0 mph 29.9 mph 0.00 in Snow Light Snow
9:34 AM 33.8 °F 21.0 °F 30.2 °F 87% 30.29 in 2.0 mi NNE 25.3 mph 31.1 mph 0.00 in Snow Light Snow
9:37 AM 33.8 °F 21.0 °F 30.2 °F 87% 30.29 in 2.0 mi NNE 25.3 mph 31.1 mph 0.00 in Snow Light Snow
9:44 AM 33.8 °F 21.6 °F 30.2 °F 87% 30.29 in 3.0 mi NNE 23.0 mph 28.8 mph 0.00 in Snow Light Snow
9:53 AM 33.1 °F 19.6 °F 30.9 °F 92% 30.34 in 4.0 mi NNE 27.6 mph 32.2 mph 0.01 in   Overcast
10:02 AM 33.8 °F 22.2 °F 30.2 °F 87% 30.29 in 5.0 mi NNE 20.7 mph 32.2 mph 0.00 in   Overcast
10:10 AM 33.8 °F 21.9 °F 30.2 °F 87% 30.30 in 6.0 mi NNE 21.9 mph 32.2 mph 0.00 in   Overcast
10:53 AM 32.0 °F 19.5 °F 28.9 °F 88% 30.38 in 4.0 mi NNE 21.9 mph 31.1 mph 0.00 in Rain Light Freezing Rain
11:23 AM 32.0 °F 19.2 °F 28.4 °F 87% 30.33 in 6.0 mi North 23.0 mph 29.9 mph 0.00 in   Overcast
11:38 AM 32.0 °F 19.2 °F 28.4 °F 87% 30.34 in 9.0 mi NNE 23.0 mph 29.9 mph 0.00 in   Overcast
11:53 AM 32.0 °F 19.8 °F 28.9 °F 88% 30.41 in 4.0 mi North 20.7 mph 28.8 mph 0.00 in   Overcast
12:08 PM 32.0 °F 20.8 °F 28.4 °F 87% 30.35 in 2.0 mi NNE 17.3 mph 32.2 mph 0.00 in Snow Light Snow
12:12 PM 32.0 °F 19.8 °F 28.4 °F 87% 30.35 in 1.8 mi NNE 20.7 mph 26.5 mph 0.00 in Snow Light Snow
12:30 PM 30.2 °F 15.9 °F 28.4 °F 93% 30.36 in 2.0 mi North 26.5 mph 31.1 mph 0.00 in Snow Light Snow
12:40 PM 30.2 °F 16.5 °F 28.4 °F 93% 30.36 in 5.0 mi NNE 24.2 mph 33.4 mph 0.00 in   Overcast
12:53 PM 30.9 °F 17.2 °F 27.0 °F 85% 30.43 in 10.0 mi NNE 25.3 mph 31.1 mph 0.00 in   Overcast
1:30 PM 30.2 °F 17.8 °F 28.4 °F 93% 30.38 in 4.0 mi North 19.6 mph - 0.00 in   Overcast
1:53 PM 30.9 °F 17.5 °F 27.0 °F 85% 30.48 in 4.0 mi NNE 24.2 mph 27.6 mph 0.00 in   Overcast
2:01 PM 30.2 °F 16.8 °F 26.6 °F 86% 30.40 in 4.0 mi NNE 23.0 mph 28.8 mph 0.00 in   Overcast
2:14 PM 30.2 °F 16.5 °F 26.6 °F 86% 30.40 in 2.0 mi NNE 24.2 mph 29.9 mph 0.00 in Snow Light Snow
2:23 PM 30.2 °F 17.4 °F 26.6 °F 86% 30.41 in 1.5 mi North 20.7 mph 29.9 mph 0.00 in Snow Light Snow
2:40 PM 30.2 °F 18.9 °F 28.4 °F 93% 30.41 in 0.8 mi North 16.1 mph - 0.00 in Snow Light Snow
2:53 PM 30.0 °F 17.2 °F 28.0 °F 92% 30.49 in 1.0 mi North 20.7 mph - 0.00 in Snow Light Snow
3:33 PM 30.2 °F 17.8 °F 28.4 °F 93% 30.42 in 1.2 mi North 19.6 mph - 0.01 in Snow Light Snow
3:44 PM 30.2 °F 18.1 °F 28.4 °F 93% 30.41 in 1.0 mi North 18.4 mph - 0.01 in Snow Light Snow
3:53 PM 30.9 °F 17.5 °F 28.0 °F 89% 30.49 in 1.5 mi North 24.2 mph 29.9 mph 0.01 in Snow Light Snow
4:07 PM 30.2 °F 16.8 °F 28.4 °F 93% 30.41 in 1.8 mi North 23.0 mph 29.9 mph 0.01 in Snow Light Snow
4:21 PM 32.0 °F 19.5 °F 28.4 °F 87% 30.42 in 1.5 mi North 21.9 mph 28.8 mph 0.01 in Snow Light Snow
4:33 PM 30.2 °F 17.8 °F 28.4 °F 93% 30.41 in 1.5 mi North 19.6 mph - 0.01 in Snow Light Snow
4:50 PM 30.2 °F 17.8 °F 28.4 °F 93% 30.44 in 0.5 mi North 19.6 mph 28.8 mph 0.01 in Fog , Snow Light Snow
4:53 PM 30.9 °F 18.7 °F 28.9 °F 92% 30.53 in 0.5 mi North 19.6 mph 25.3 mph 0.01 in Fog , Snow Light Snow
5:09 PM 30.2 °F 17.4 °F 28.4 °F 93% 30.44 in 0.5 mi North 20.7 mph 29.9 mph 0.01 in Fog , Snow Light Snow
5:19 PM 30.2 °F 16.2 °F 28.4 °F 93% 30.46 in 1.0 mi North 25.3 mph 29.9 mph 0.01 in Snow Light Snow
5:34 PM 30.2 °F 16.5 °F 28.4 °F 93% 30.45 in 0.8 mi North 24.2 mph 31.1 mph 0.01 in Snow Light Snow
5:53 PM 30.0 °F 17.9 °F 28.0 °F 92% 30.56 in 0.5 mi North 18.4 mph - 0.02 in Fog , Snow Light Snow
6:10 PM 30.2 °F 18.5 °F 28.4 °F 93% 30.48 in 0.2 mi North 17.3 mph - 0.00 in Fog , Snow Snow
6:53 PM 30.0 °F 20.5 °F 28.9 °F 96% 30.60 in 0.2 mi North 11.5 mph - 0.03 in Fog , Snow Snow
7:03 PM 30.2 °F 20.2 °F 28.4 °F 93% 30.50 in 0.5 mi North 12.7 mph - 0.01 in Fog , Snow Snow
7:25 PM 30.2 °F 20.2 °F 28.4 °F 93% 30.50 in 0.5 mi North 12.7 mph - 0.03 in Fog , Snow Snow
7:53 PM 30.0 °F 21.1 °F 28.9 °F 96% 30.61 in 1.0 mi North 10.4 mph - 0.05 in Snow Light Snow
8:04 PM 30.2 °F 21.9 °F 28.4 °F 93% 30.52 in 1.2 mi North 9.2 mph - 0.01 in Snow Light Snow
8:44 PM 30.2 °F 24.3 °F 28.4 °F 93% 30.54 in 1.8 mi North 5.8 mph - 0.03 in Snow Light Snow
8:53 PM 30.0 °F 25.2 °F 28.9 °F 96% 30.63 in 2.5 mi North 4.6 mph - 0.04 in Snow Light Snow
9:11 PM 30.2 °F - 28.4 °F 93% 30.55 in 3.0 mi Calm Calm - 0.00 in Snow Light Snow
9:20 PM 30.2 °F 25.4 °F 28.4 °F 93% 30.55 in 6.0 mi NW 4.6 mph - 0.00 in Snow Light Snow
9:53 PM 30.0 °F 26.5 °F 28.0 °F 92% 30.65 in 10.0 mi NW 3.5 mph - 0.00 in   Overcast
10:53 PM 30.0 °F 24.1 °F 28.0 °F 92% 30.65 in 10.0 mi West 5.8 mph - N/A   Overcast
11:53 PM 30.0 °F - 28.0 °F 92% 30.66 in 10.0 mi Calm Calm - N/A   Overcast